Low Isles Observation History
Time Wind Speed Temp Pressure Rel. Hum Rain
04/07:30am SE 20-23 kts 22.3°c 1019.0 hPa 67% 0.0mm
04/07:00am SE 20-24 kts 22.3°c 1018.5 hPa 65% 0.0mm
04/06:30am SE 19-23 kts 22.3°c 1018.0 hPa 68% 0.0mm
04/06:00am SE 19-23 kts 22.2°c 1017.6 hPa 61% 0.0mm
04/05:30am SE 20-23 kts 22.3°c 1017.4 hPa 64% 0.0mm
04/05:00am SE 21-25 kts 22.3°c 1017.3 hPa 64% 0.0mm
04/04:30am SE 20-23 kts 22.1°c 1017.2 hPa 65% 0.0mm
04/04:00am SE 21-24 kts 22.2°c 1017.2 hPa 67% 0.0mm
04/03:30am SE 21-25 kts 22.0°c 1017.3 hPa 65% 0.0mm
04/03:00am SE 21-23 kts 21.7°c 1017.4 hPa 67% 0.0mm
04/02:30am SE 22-26 kts 21.7°c 1017.5 hPa 66% 0.0mm
04/02:00am SE 22-26 kts 21.8°c 1017.8 hPa 68% 0.0mm
04/01:30am SE 22-25 kts 21.9°c 1018.1 hPa 66% 0.0mm
04/01:00am SE 23-26 kts 22.1°c 1018.3 hPa 64% 0.0mm
04/12:30am SSE 21-24 kts 22.2°c 1018.6 hPa 66% 0.0mm
04/12:00am SSE 20-24 kts 22.4°c 1019.0 hPa 69% 0.0mm
Time Wind Speed Temp Pressure Rel. Hum Rain
03/11:30pm SSE 21-23 kts 22.4°c 1019.2 hPa 70% 0.0mm
03/11:00pm SSE 20-23 kts 22.6°c 1019.4 hPa 71% 0.0mm
03/10:30pm SE 20-23 kts 22.7°c 1019.8 hPa 71% 0.0mm
03/10:00pm SE 21-23 kts 23.0°c 1020.0 hPa 69% 0.0mm
03/09:30pm SE 23-25 kts 23.2°c 1020.1 hPa 70% 0.0mm
03/09:00pm SE 24-27 kts 23.1°c 1019.9 hPa 69% 0.0mm
03/08:30pm SE 24-28 kts 23.3°c 1019.5 hPa 74% 0.0mm
03/08:00pm SE 25-29 kts 23.2°c 1019.1 hPa 72% 0.0mm
03/07:30pm SE 25-30 kts 23.3°c 1018.5 hPa 70% 0.0mm
03/07:00pm SE 26-30 kts 23.5°c 1018.1 hPa 71% 0.0mm
03/06:30pm SE 25-31 kts 23.6°c 1017.8 hPa 70% 0.0mm
03/06:00pm SE 25-30 kts 23.6°c 1017.6 hPa 73% 0.0mm
03/05:30pm SE 26-30 kts 23.7°c 1017.4 hPa 76% 0.0mm
03/05:00pm SE 25-29 kts 23.7°c 1017.0 hPa 76% 0.0mm
03/04:30pm SE 25-29 kts 23.7°c 1016.8 hPa 75% 0.0mm
03/04:00pm SE 23-27 kts 24.1°c 1016.7 hPa 74% 0.0mm
03/03:30pm SE 23-26 kts 24.8°c 1016.5 hPa 73% 0.0mm
03/03:00pm SE 22-27 kts 25.1°c 1016.5 hPa 71% 0.0mm
03/02:30pm SE 22-26 kts 25.1°c 1016.6 hPa 70% 0.0mm
03/02:00pm SE 24-28 kts 25.1°c 1016.9 hPa 73% 0.0mm
03/01:30pm SE 22-27 kts 25.4°c 1017.2 hPa 69% 0.0mm
03/01:00pm SE 23-27 kts 25.3°c 1017.5 hPa 73% 0.0mm
03/12:30pm SE 22-25 kts 24.9°c 1018.0 hPa 75% 0.0mm
03/12:00pm SE 20-23 kts 25.2°c 1018.4 hPa 76% 0.0mm
03/11:30am SE 22-25 kts 24.7°c 1018.6 hPa 75% 0.0mm
03/11:00am SE 20-22 kts 24.4°c 1018.9 hPa 76% 0.0mm
03/10:30am SE 19-23 kts 24.2°c 1019.2 hPa 78% 0.0mm
03/10:00am SE 19-22 kts 23.8°c 1019.3 hPa 79% 0.0mm
03/09:30am SE 18-20 kts 23.7°c 1019.2 hPa 80% 0.0mm
03/09:00am SE 16-19 kts 23.7°c 1019.1 hPa 79% 0.0mm
03/08:30am SE 17-20 kts 23.6°c 1018.9 hPa 78% 0.0mm
03/08:00am SE 15-17 kts 23.4°c 1018.6 hPa 80% 0.0mm
03/07:30am SE 16-18 kts 23.4°c 1018.3 hPa 77% 0.0mm
03/07:00am SE 15-18 kts 23.4°c 1017.9 hPa 77% 0.0mm
03/06:30am SE 15-18 kts 23.4°c 1017.6 hPa 78% 0.0mm
03/06:00am SE 14-17 kts 23.3°c 1017.3 hPa 77% 0.0mm
03/05:30am SE 13-15 kts 23.4°c 1016.9 hPa 77% 0.0mm
03/05:00am SSE 13-16 kts 23.4°c 1016.7 hPa 76% 0.0mm
03/04:30am SSE 12-15 kts 23.4°c 1016.5 hPa 75% 0.0mm
03/04:00am SSE 10-13 kts 23.2°c 1016.5 hPa 75% 0.0mm
03/03:30am SSE 12-13 kts 23.3°c 1016.5 hPa 74% 0.0mm
03/03:00am SSE 12-13 kts 23.3°c 1016.6 hPa 75% 0.0mm
03/02:30am SSE 12-13 kts 23.3°c 1016.8 hPa 74% 0.0mm
03/02:00am SE 12-13 kts 23.2°c 1017.2 hPa 73% 0.0mm
03/01:30am SE 13-15 kts 23.3°c 1017.5 hPa 73% 0.0mm
03/01:00am SE 12-13 kts 23.3°c 1017.8 hPa 75% 0.0mm
03/12:30am SE 14-16 kts 23.5°c 1018.1 hPa 75% 0.0mm
03/12:00am SE 16-18 kts 23.6°c 1018.3 hPa 76% 0.0mm
Time Wind Speed Temp Pressure Rel. Hum Rain
02/11:30pm SE 17-19 kts 23.6°c 1018.4 hPa 77% 0.0mm
02/11:00pm SE 15-17 kts 23.8°c 1018.7 hPa 79% 0.0mm
02/10:30pm SE 17-20 kts 23.8°c 1018.7 hPa 79% 0.0mm
02/10:00pm SE 18-21 kts 23.9°c 1018.9 hPa 78% 0.0mm
02/09:30pm SE 18-21 kts 24.0°c 1018.7 hPa 79% 0.0mm
02/09:00pm SE 17-21 kts 24.1°c 1018.5 hPa 78% 0.0mm
02/08:30pm SE 16-19 kts 24.2°c 1018.4 hPa 78% 0.0mm
02/08:00pm SE 17-20 kts 24.3°c 1018.0 hPa 77% 0.0mm
02/07:30pm ESE 15-18 kts 24.2°c 1017.5 hPa 77% 0.0mm
02/07:00pm ESE 17-21 kts 24.1°c 1017.4 hPa 76% 0.0mm
02/06:30pm ESE 17-21 kts 24.0°c 1017.0 hPa 77% 0.0mm
02/06:00pm ESE 17-21 kts 24.2°c 1016.7 hPa 75% 0.0mm
02/05:30pm ESE 17-22 kts 24.2°c 1016.4 hPa 75% 0.0mm
02/05:00pm ESE 16-21 kts 24.6°c 1016.1 hPa 73% 0.0mm
02/04:30pm ESE 16-20 kts 25.1°c 1016.0 hPa 69% 0.0mm
02/04:00pm ESE 15-19 kts 25.8°c 1016.0 hPa 65% 0.0mm
02/03:30pm E 13-16 kts 26.6°c 1015.9 hPa 66% 0.0mm
02/03:00pm ESE 12-14 kts 26.7°c 1016.1 hPa 60% 0.0mm
02/02:30pm ESE 12-16 kts 27.0°c 1016.2 hPa 64% 0.0mm
02/02:00pm ESE 12-16 kts 27.0°c 1016.4 hPa 66% 0.0mm
02/01:30pm ESE 12-14 kts 26.7°c 1016.8 hPa 68% 0.0mm
02/01:00pm SE 10-13 kts 26.4°c 1017.1 hPa 65% 0.0mm
02/12:30pm SE 10-12 kts 25.7°c 1017.5 hPa 65% 0.0mm
02/12:00pm SSE 10-11 kts 25.7°c 1017.9 hPa 67% 0.0mm
02/11:30am SE 9-11 kts 25.6°c 1018.2 hPa 68% 0.0mm
02/11:00am SSE 10-11 kts 25.4°c 1018.3 hPa 70% 0.0mm
02/10:30am SSE 11-12 kts 24.8°c 1018.5 hPa 74% 0.0mm
02/10:00am SSE 10-11 kts 24.3°c 1018.5 hPa 77% 0.0mm
02/09:30am S 7-9 kts 23.7°c 1018.5 hPa 78% 0.0mm
02/09:00am S 8-9 kts 23.5°c 1018.3 hPa 80% 0.0mm
02/08:30am S 8-9 kts 23.3°c 1018.1 hPa 81% 0.0mm
02/08:00am S 9-10 kts 23.2°c 1017.9 hPa 82% 0.0mm
02/07:30am S 9-10 kts 23.3°c 1017.6 hPa 83% 0.0mm
02/07:00am S 8-11 kts 23.3°c 1017.3 hPa 83% 0.0mm
02/06:30am SSE 10-12 kts 23.6°c 1017.0 hPa 81% 0.0mm
02/06:00am S 8-9 kts 23.3°c 1016.7 hPa 82% 0.0mm
02/05:30am SSE 11-12 kts 23.7°c 1016.4 hPa 82% 0.0mm
02/05:00am SSE 11-12 kts 23.7°c 1016.3 hPa 82% 0.0mm
02/04:30am SSE 10-12 kts 23.7°c 1016.3 hPa 83% 0.0mm
02/04:00am SSE 9-11 kts 23.6°c 1016.1 hPa 84% 0.0mm
02/03:30am S 8-9 kts 23.5°c 1016.0 hPa 84% 0.0mm
02/03:00am SSE 8-9 kts 23.4°c 1016.1 hPa 84% 0.0mm
02/02:30am S 8-9 kts 23.4°c 1016.1 hPa 84% 0.0mm
02/02:00am S 7-8 kts 23.4°c 1016.4 hPa 84% 0.0mm
02/01:30am S 8-9 kts 23.5°c 1016.7 hPa 84% 0.0mm
02/01:00am SSE 10-11 kts 23.7°c 1017.0 hPa 82% 0.0mm
02/12:30am SSE 8-9 kts 23.5°c 1017.1 hPa 83% 0.0mm
02/12:00am SSE 7-8 kts 23.6°c 1017.3 hPa 83% 0.0mm